Location: Newark
(22.3060°N, 114.2134°E)
Time: 18:37:36
(UTC+00:00)

Vanguard 1 Rocket - All Passes

Search period start: 27 July 2021 00:00
Search period end: 06 August 2021 00:00
Orbit: 650 x 4226 km, 34.3° (Epoch: 26 July)

Date Brightness Start Highest point End Pass type
(mag) Time Alt. Az. Time Alt. Az. Time Alt. Az.
27 Jul - 00:56:27 10° SW 01:19:38 57° SSE 01:32:45 10° ENE daylight
27 Jul - 03:30:34 10° WSW 03:49:04 70° NNW 03:58:09 10° ENE daylight
27 Jul - 06:07:13 10° WNW 06:16:48 34° N 06:22:26 10° NE daylight
27 Jul - 08:38:04 10° NW 08:43:45 40° NNE 08:47:57 10° E daylight
27 Jul - 11:04:42 10° W 11:08:35 30° SSW 11:12:48 10° SSE daylight
27 Jul - 21:22:12 10° SSE 21:31:33 13° SE 21:40:19 10° ESE visible
27 Jul - 23:42:23 10° SSW 00:05:14 42° SE 00:20:19 10° E daylight
28 Jul - 02:13:54 10° WSW 02:36:07 88° SSE 02:47:20 10° ENE daylight
28 Jul - 04:50:49 10° W 05:04:35 45° NNW 05:11:50 10° NE daylight
28 Jul - 07:25:07 10° WNW 07:32:11 33° N 07:36:47 10° ENE daylight
28 Jul - 09:52:55 10° WNW 09:57:53 71° SSW 10:02:16 10° SE daylight
28 Jul - 22:29:52 10° SSW 22:50:17 29° SE 23:06:10 10° E daylight
29 Jul - 00:58:06 10° SW 01:22:24 69° SSE 01:36:01 10° ENE daylight
29 Jul - 03:33:34 10° WSW 03:52:00 61° NNW 04:01:13 10° ENE daylight
29 Jul - 06:10:31 10° WNW 06:20:12 35° N 06:25:51 10° ENE daylight
29 Jul - 08:40:55 10° WNW 08:47:00 57° NNE 08:51:22 10° ESE daylight
29 Jul - 11:08:38 10° WSW 11:11:34 17° SW 11:14:39 10° S daylight
29 Jul - 21:19:42 10° S 21:34:55 19° SE 21:48:42 10° ESE visible
29 Jul - 23:43:33 10° SSW 00:07:59 52° SE 00:23:52 10° ENE daylight
30 Jul - 02:16:23 10° WSW 02:38:54 80° NNW 02:50:23 10° ENE daylight
30 Jul - 04:54:13 10° W 05:07:50 42° NNW 05:15:05 10° ENE daylight
30 Jul - 07:28:02 10° WNW 07:35:36 40° N 07:40:21 10° E daylight
30 Jul - 09:56:06 10° WNW 10:00:52 42° SW 10:05:01 10° SE daylight
30 Jul - 22:30:28 10° SSW 22:53:03 37° SE 23:10:24 10° E daylight
31 Jul - 01:00:03 10° SW 01:25:06 80° SSE 01:39:07 10° ENE daylight
31 Jul - 03:36:45 10° W 03:55:03 55° NNW 04:04:21 10° ENE daylight
31 Jul - 06:13:41 10° WNW 06:23:38 37° N 06:29:21 10° ENE daylight
31 Jul - 08:43:47 10° WNW 08:50:10 85° NNE 08:54:36 10° ESE daylight
31 Jul - 21:19:13 10° S 21:37:53 25° SE 21:54:34 10° E visible
31 Jul - 23:45:02 10° SW 00:10:37 62° SE 00:27:10 10° ENE daylight
01 Aug - 02:19:08 10° WSW 02:41:45 71° NNW 02:53:26 10° ENE daylight
01 Aug - 04:57:34 10° WNW 05:11:11 42° N 05:18:28 10° ENE daylight
01 Aug - 07:30:51 10° WNW 07:38:56 52° NNE 07:43:50 10° E daylight
01 Aug - 09:59:34 10° W 10:03:45 25° SW 10:07:23 10° SSE daylight
01 Aug - 20:11:42 10° SSE 20:22:30 14° SE 20:33:17 10° ESE visible
01 Aug - 22:31:30 10° SSW 22:55:39 46° SE 23:14:08 10° ENE daylight
02 Aug - 01:02:19 10° WSW 01:27:46 89° NNW 01:42:10 10° ENE daylight
02 Aug - 03:40:04 10° W 03:58:12 51° NNW 04:07:34 10° ENE daylight
02 Aug - 06:16:40 10° WNW 06:27:05 42° N 06:32:53 10° ENE daylight
02 Aug - 08:46:44 10° WNW 08:53:10 63° SSW 08:57:36 10° SE daylight
02 Aug - 21:19:36 10° SSW 21:40:31 32° SE 21:59:17 10° E visible
02 Aug - 23:46:51 10° SW 00:13:09 73° SSE 00:30:18 10° ENE daylight
03 Aug - 02:22:08 10° WSW 02:44:40 63° NNW 02:56:31 10° ENE daylight
03 Aug - 05:00:49 10° WNW 05:14:35 43° N 05:21:54 10° ENE daylight
03 Aug - 07:33:38 10° WNW 07:42:10 70° NNE 07:47:10 10° ESE daylight
03 Aug - 10:03:40 10° WSW 10:06:31 15° SW 10:09:05 10° S daylight
03 Aug - 20:10:03 10° S 20:25:27 20° SE 20:40:58 10° E visible
03 Aug - 22:32:54 10° SW 22:58:05 56° SE 23:17:31 10° ENE daylight
04 Aug - 01:04:52 10° WSW 01:30:29 79° NNW 01:45:10 10° ENE daylight
04 Aug - 03:43:25 10° W 04:01:28 49° N 04:10:50 10° ENE daylight
04 Aug - 06:19:31 10° WNW 06:30:28 51° NNE 06:36:23 10° E daylight
04 Aug - 08:49:53 10° WNW 08:56:01 40° SW 09:00:19 10° SSE daylight
04 Aug - 21:20:32 10° SSW 21:42:56 40° SE 22:03:17 10° ENE visible
04 Aug - 23:48:57 10° SW 00:15:40 83° SSE 00:33:18 10° ENE daylight
05 Aug - 02:25:18 10° W 02:47:42 58° NNW 02:59:39 10° ENE daylight
05 Aug - 05:03:55 10° WNW 05:18:01 46° N 05:25:23 10° ENE daylight
05 Aug - 07:36:26 10° WNW 07:45:16 85° SSW 07:50:20 10° ESE daylight
05 Aug - 20:10:00 10° S 20:28:00 26° SE 20:46:33 10° E visible
05 Aug - 22:34:37 10° SW 23:00:26 66° SE 23:20:40 10° ENE daylight
